STARLINK-4767 (53850 NORAD) Tracking and Keplerian Element Data

This shows tracking and keplerian element data for the satellite.

Feedback or suggestion? Click here.




ElementValue
Catalog53850
NameSTARLINK-4767
Epoch Orbit1053
Epoch Day325.33334491
Epoch Year2022
RAAN305.6256
Inclination53.2173
Eccentricity0.0001017
Argument of Perigee85.2069
Mean Anonmoly309.0616
Mean Motion15.66620528
Decay Rate-0.01140796
L11 53850U 22114AJ 22325.33334491 -.01140796 00000+0 -11799-1 0 9992
L22 53850 53.2173 305.6256 0001017 85.2069 309.0616 15.66620528 10535



Live tracking and technical data element details for STARLINK-4767 (NORAD 53850). STARLINK-4767 can be tracked NOW for your location showing map with azimuth and elevation plus other details from your city location.







IsCatalogInMostPopularTable: catalog: 53850, numindb: 1
Update: records affected: 1



GetName: 53850 STARLINK-4767

Hit Count: updated at: Mon, 28 Nov 2022 04:45:31 GMT